{"data":{"norad_id":49199,"epoch":"2026-05-25T01:24:00.402336Z","epoch_age_seconds":60120,"freshness":"FRESH","line1":"1 49199U 21083P   26145.05833799 -.00000242  00000+0 -69744-3 0  9990","line2":"2 49199  87.8941 324.8435 0001828  90.3725 269.7613 13.13467876227871","mean_motion":13.13467876,"eccentricity":0.0001828,"inclination_deg":87.8941,"raan_deg":324.8435,"arg_perigee_deg":90.3725,"mean_anomaly_deg":269.7613,"bstar":-0.00069744,"rev_number":22787,"period_min":109.6334388006,"perigee_km":1208.3865100744,"apogee_km":1211.1606501825,"semimajor_km":7587.9105801284,"source":"CELESTRAK","updated_at":"2026-05-25T13:38:22.491631Z"}}